Regional Weather Roundup
Issued by NWS Charleston, SC

Current Version | Previous Version | Graphics & Text | Print | Product List | Glossary On
Versions: 1 2 3 4 5 6 7 8 9 10 11 12 13 14 15 16 17 18 19 20 21 22 23 24 25 26 27 28 29 30 31 32 33 34 35 36 37 38 39 40 41 42 43 44 45 46 47 48 49 50
933
ASUS42 KCHS 190227
RWRCHS

REGIONAL WEATHER ROUNDUP
NATIONAL WEATHER SERVICE CHARLESTON SC
1000 PM EDT FRI AUG 18 2017

NOTE: "FAIR" INDICATES FEW OR NO CLOUDS BELOW 12,000 FEET WITH NO
SIGNIFICANT WEATHER AND/OR OBSTRUCTIONS TO VISIBILITY.

NOT ALL STATIONS ARE QUALITY CONTROLLED. USE DATA WITH CAUTION...
ESPECIALLY DEWPOINT OBSERVATIONS.

SCZ027-030-031-034>040-042>050-190300-
...SOUTHEAST SOUTH CAROLINA...

CITY           SKY/WX    TMP DP  RH WIND       PRES   REMARKS
N CHARLESTON   CLEAR     83  78  85 S10       29.95R HX  93
WATERFRONT PRK   N/A    N/A N/A N/A SW7       29.79R
JOHNS ISLAND   FAIR      84  79  84 SW7G13    29.96R HX  96
PINOPOLIS        N/A     84  79  84 S5        29.87R HX  96
MONCKS CORNER  FAIR      81  77  89 S6        29.94S
SUMMERVILLE    FAIR      81  77  89 S5        29.95S
BEAUFORT MCAS  CLEAR     86  80  82 S5        29.95R HX 101
BEAUFORT ARPT  FAIR      84  77  79 SW7       29.95S HX  94
HILTON HEAD IS CLEAR     86  79  79 S8        29.96S HX  99
WALTERBORO     CLEAR     82  77  83 S8        29.95S HX  91
ALLENDALE      NOT AVBL

...SOUTHERN MIDLANDS AND PEE DEE...

CITY           SKY/WX    TMP DP  RH WIND       PRES   REMARKS
GEORGETOWN     FAIR      81  81 100 S7        29.95R HX  91
KINGSTREE      FAIR      81  77  89 S6        29.93R
ORANGEBURG     PTCLDY    81  75  82 S6        29.93R
BARNWELL       FAIR      81  79  94 CALM      29.94S
AIKEN          FAIR      77  73  88 CALM      29.98S
MANNING        FAIR      84  81  89 MISG      29.93R HX  98
COLUMBIA       PTCLDY    85  73  67 SW6       29.91R HX  91
SUMTER         CLEAR     85  74  69 S7        29.89R HX  92
FLORENCE       CLEAR     84  75  74 S8        29.91R HX  92
MYRTLE BEACH   CLEAR     84  79  84 SW14      29.93S HX  96
N MYRTLE BEACH CLEAR     84  79  85 SW18G26   29.92R HX  96

$$

GAZ063-065-086>088-099>101-113>116-118-119-134>141-150-190300-
...SOUTHEAST GEORGIA...

CITY           SKY/WX    TMP DP  RH WIND       PRES   REMARKS
SAVANNAH ARPT  CLEAR     84  75  74 SW8       29.96R HX  92
HUNTER AAF     CLEAR     83  75  76 SW7       29.94R HX  90
FORT STEWART   CLEAR     81  73  78 CALM      29.94R
STATESBORO     MOCLDY    85  72  64 SW6       29.96R HX  91
SYLVANIA       PTCLDY    85  77  79 CALM      29.96R HX  95
CLAXTON        FAIR      83  77  80 SE5       29.96R HX  92

...CSRA...CENTRAL AND FAR SOUTHEAST GEORGIA...

CITY           SKY/WX    TMP DP  RH WIND       PRES   REMARKS
THOMSON        CLEAR     77  74  90 W5        30.00R
AUGUSTA-BUSH   CLEAR     80  77  90 CALM      29.93R
AUGUSTA-DANIEL CLEAR     85  72  65 CALM      29.95R HX  91
SWAINSBORO     FAIR      82  75  78 CALM      29.97R
VIDALIA        PTCLDY    84  77  79 S6        29.97R HX  94
EASTMAN        MOCLDY    80  75  86 CALM      30.00R
HAZLEHURST     FAIR      83  70  64 S6        29.97R
ALMA           CLOUDY    80  73  79 SW8       29.98R
WAYCROSS       PTCLDY    78  73  84 W8        29.99R
JESUP          FAIR      79  73  83 CALM      29.98R
BAXLEY         FAIR      79  73  83 SW6       29.98R
BRUNSWICK      PTCLDY    79  73  83 S5        29.98S
SAINT SIMONS   CLEAR     83  77  82 SW6       29.97R HX  92

$$

SCZ027-028-034-036>038-045-046-048>050-GAZ119-141-190300-
...LAKE AND SUPPLEMENTAL COASTAL OBSERVATIONS...

STATION/POSITION TIME  TEMP    WIND        PRES    WAVE   SWELL
                       AIR SEA DIR/SP/G            HT/PER HT/PER/DIR
                 (UTC) (F)     (DEG/KT/KT) (MB)    (FT/S) (FT/S/D)
WINYAH BAY       NOT AVBL
LAKE MURRAY      0220   86     220/  9/ 11 1012.5R
ACE BASIN NERRS  NOT AVBL
FORT PULASKI     0200   84 87  230/  8/ 12 1014.7
SAPELO ISLAND    NOT AVBL

$$

ANZ835-935-AMZ111-154-330-350-352-354-370-450-454-472-190300-
...C-MAN AND BUOY OBSERVATIONS...

STATION/POSITION TIME  TEMP    WIND        PRES    WAVE   SWELL
                       AIR SEA DIR/SP/G            HT/PER HT/PER/DIR
                 (UTC) (F)     (DEG/KT/KT) (MB)    (FT/S) (FT/S/D)
BUOY 41004       0210   84 85  210/ 16/ 17 1014.0
BUOY 41008       0150   85 85  210/ 10/ 12 1014.4R   2/ 3   2/130/ 8
FOLLY BEACH CMAN 0200   86     210/ 17/ 19 1014.8R
CAPERS NEARSHORE 0208   83 85  220/ 16/ 19 1013.8R
FRIPP NEARSHORE  0208   85     210/ 16/ 19 1013.9R


STATION/POSITION TIME  TEMP    WIND        PRES    WAVE   SWELL
                       AIR SEA DIR/SP/G            HT/PER HT/PER/DIR
                 (UTC) (F)     (DEG/KT/KT) (MB)    (FT/S) (FT/S/D)
5E ST. MARYS GA  0200      85                N/A     1/ 8
FRYING PAN BUOY  0210   85 84  210/ 19/ 23 1013.8
BUOY 41025       0150   85 85  210/ 19/ 25 1013.2R   5/ 5
CAPE LOOKOUT NC  0200   84     210/ 13/ 17 1013.2R
BUOY 41002       0150   84 85  220/ 12/ 14 1016.5R   3/ 8   2/ 90/ 8
BUOY 41010       0210   85 85  160/ 12/ 14 1016.8
ST AUGUSTINE FL  0200   78 82  200/  2/  2 1015.5R


$$




USA.gov is the U.S. government's official web portal to all federal, state and local government web resources and services.